sat.trackr.live / text

‹ back to catalog

STARLINK-3932

NORAD 52576 · 2022-051AS

PAYLOAD ACTIVE UNKNOWN

§ Identity

Operator
Country
US
Launch date
2022-05-13
Launch site
AFWTR
Launch vehicle
Mass (kg)
RCS (m²)

Purposes: comms

External: N2YO · Heavens-Above · Gunter

§ Orbital elements

Epoch: 2026-09-20T03:37:02.699616Z

Period
93.85 min
Inclination
53.1596°
Eccentricity
0.0001568
Mean motion
15.34385846 rev/d
Perigee alt
461.7 km
Apogee alt
463.8 km
Semi-major
6,840.9 km
B*
1.8968e-5
RAAN
319.0920°
Arg perigee
91.7394°
Mean anomaly
268.3788°
Rev number
24,103

§ Raw data

STARLINK-39321 52576U 22051AS  26263.15072569  .00000264  00000+0  18968-4 0  99962 52576  53.1596 319.0920 0001568  91.7394 268.3788 15.34385846241032

JSON: /api/v1/satellites/52576 · /tle

For live sub-satellite position, see the globe view (requires WebGL).

§ Visibility from observer

Set your observer location to see the next 7 days of passes ≥ 10°. The values pass through the URL so the page stays shareable.

No JS? Fill the form by hand. The geolocation button needs JavaScript.